Barter Island, AK

6:10 AM AKDT on September 19, 2017 (GMT -0800)
Barter Island LRRS

Weather History for PABA - September, 2012

Change the Weather History Date:

Friday, September 14, 2012

  Actual Average Record
Temperature  
Mean Temperature 37 °F -  
Max Temperature 37 °F 35 °F 57 °F (2017)
Min Temperature 35 °F 30 °F 24 °F (1996)
Degree Days  
Heating Degree Days 28    
Moisture  
Dew Point 34 °F    
Average Humidity 89    
Maximum Humidity 97    
Minimum Humidity 82    
Precipitation  
Precipitation 0.01 in - - ()
Sea Level Pressure  
Sea Level Pressure 29.83 in    
Wind  
Wind Speed 8 mph (WSW)    
Max Wind Speed 10 mph    
Max Gust Speed -    
Visibility 10 miles    
Events Rain    
Averages and records for this station are not official NWS values.
T = Trace of Precipitation, MM = Missing Value Source: NWS Daily Summary

Daily Weather History Graph

Daily Weather History Graph

Search for Another Location

Airport or City:

Trip Planner

Search our weather history database for the weather conditions in past years. The results will help you decide how hot, cold, wet, or windy it might be!

Date:

Astronomy

Sep. 14, 2012 Rise Set
Actual Time 6:45 AM AKDT 8:11 PM AKDT
Civil Twilight 5:40 AM AKDT 9:15 PM AKDT
Nautical Twilight 4:10 AM AKDT 10:43 PM AKDT
Astronomical Twilight 2:02 AM AKDT 12:57 AM AKDT
Moon 4:58 AM AKDT (9/14) 7:10 PM AKDT (9/14)
Length of Visible Light 15h 35m
Length of Day
13h 26m
Waning Crescent, 2% of the Moon is Illuminated
Sep 14
Waning Crescent
Sep 15
New
Sep 22
First Quarter
Sep 29
Full
Oct 7
Last Quarter

Hourly Weather History & Observations

Time (AKDT) Temp. Windchill Dew Point Humidity Pressure Visibility Wind Dir Wind Speed Gust Speed Precip Events Conditions
12:01 AM 36.0 °F 28.5 °F 35.1 °F 97% 29.84 in 10.0 mi SW 10.4 mph - N/A   Overcast
1:01 AM 36.0 °F 28.5 °F 34.0 °F 93% 29.83 in 10.0 mi SW 10.4 mph - N/A   Overcast
2:01 AM 35.1 °F 28.6 °F 34.0 °F 96% 29.83 in 10.0 mi SW 8.1 mph - N/A   Overcast
3:01 AM 36.0 °F 28.5 °F 33.1 °F 89% 29.83 in 10.0 mi SW 10.4 mph - N/A   Overcast
4:01 AM 37.0 °F 29.8 °F 33.1 °F 86% 29.83 in 10.0 mi SW 10.4 mph - N/A   Overcast
5:01 AM 36.0 °F 28.5 °F 33.1 °F 89% 29.83 in 10.0 mi WSW 10.4 mph - N/A   Overcast
5:13 AM 35.6 °F 28.6 °F 33.8 °F 93% 29.82 in 10.0 mi WSW 9.2 mph - N/A   Overcast
6:01 AM 36.0 °F 29.6 °F 34.0 °F 93% 29.82 in 10.0 mi WSW 8.1 mph - N/A   Overcast
7:01 AM 35.1 °F 28.6 °F 33.1 °F 92% 29.82 in 10.0 mi SW 8.1 mph - N/A   Overcast
8:01 AM 35.1 °F 28.6 °F 33.1 °F 92% 29.82 in 10.0 mi SW 8.1 mph - N/A   Overcast
9:01 AM 36.0 °F 29.6 °F 33.1 °F 89% 29.82 in 10.0 mi SW 8.1 mph - N/A   Overcast
10:01 AM 36.0 °F 29.0 °F 33.1 °F 89% 29.83 in 10.0 mi WSW 9.2 mph - N/A   Overcast
11:01 AM 37.0 °F 30.4 °F 34.0 °F 89% 29.83 in 10.0 mi WSW 9.2 mph - N/A   Overcast
12:01 PM 37.0 °F 29.8 °F 34.0 °F 89% 29.83 in 10.0 mi WSW 10.4 mph - N/A   Mostly Cloudy
1:01 PM 37.9 °F 31.5 °F 34.0 °F 86% 29.84 in 10.0 mi West 9.2 mph - 0.00 in   Mostly Cloudy
2:01 PM 39.0 °F 32.3 °F 34.0 °F 82% 29.84 in 10.0 mi WNW 10.4 mph - N/A   Overcast
3:01 PM 39.0 °F 34.0 °F 34.0 °F 82% 29.83 in 10.0 mi WNW 6.9 mph - N/A   Partly Cloudy
4:01 PM 37.9 °F 34.4 °F 34.0 °F 86% 29.84 in 10.0 mi WNW 4.6 mph - N/A   Partly Cloudy
4:29 PM 39.2 °F 35.9 °F 35.6 °F 87% 29.84 in 10.0 mi WNW 4.6 mph - N/A   Mostly Cloudy
4:58 PM 37.4 °F - 33.8 °F 87% 29.84 in 10.0 mi Calm Calm - N/A   Overcast
5:01 PM 37.9 °F 35.5 °F 34.0 °F 86% 29.84 in 10.0 mi WNW 3.5 mph - N/A   Overcast
6:01 PM 37.9 °F 34.4 °F 34.0 °F 86% 29.84 in 10.0 mi NNW 4.6 mph - N/A   Overcast
7:01 PM 37.9 °F - 34.0 °F 86% 29.84 in 10.0 mi Calm Calm - N/A   Overcast
8:01 PM 37.9 °F - 35.1 °F 89% 29.84 in 10.0 mi Calm Calm - N/A   Overcast
8:58 PM 37.4 °F 34.9 °F 35.6 °F 93% 29.84 in 9.0 mi NE 3.5 mph - N/A   Overcast
9:01 PM 37.4 °F 34.9 °F 35.6 °F 93% 29.84 in 9.0 mi ENE 3.5 mph - N/A   Overcast
9:10 PM 37.4 °F - 35.6 °F 93% 29.84 in 10.0 mi Calm Calm - N/A   Overcast
10:01 PM 37.9 °F - 35.1 °F 89% 29.85 in 9.0 mi Calm Calm - 0.00 in Rain Light Rain
11:01 PM 37.9 °F - 35.1 °F 89% 29.84 in 9.0 mi Calm Calm - 0.01 in   Overcast